Flag Weather past 2 weeks in Kairouan, Tunisia

Now
57 °F

Cool.


Feels Like: 57 °F
Forecast: 60 / 76 °F
Wind: No wind

Location: Kairouan Airport

Current Time: Nov 28, 2014 at 4:11:02 AM

Latest Report: Nov 28, 2014 at 3:00 AM


Visibility: N/A

Pressure: 29.74 "Hg

Humidity: 88%

Dew point: 54 °F

Location of KairouanLocation

Historic Weather in Kairouan — Graph

°F

Kairouan temperature yesterday

Maximum temperature yesterday: 75 °F (at 3:00 PM)
Minimum temperature yesterday: 59 °F (at 2:00 AM)
Average temperature yesterday: 65 °F

Past Weeks' High & Low Weather Summary

 TemperatureHumidityPressure
High86 °F (Nov 15, 1:00 PM)100% (Nov 20, 5:00 AM)30.30 "Hg (Nov 20, 5:00 AM)
Low55 °F (Nov 14, 7:00 AM)25% (Nov 15, 1:00 PM)29.74 "Hg (Nov 28, 3:00 AM)
Average66 °F71%30.05 "Hg
* Reported Nov 13 3:00 AM — Nov 28 3:00 AM, Kairouan, Weather by CustomWeather, © 2014

Note: Actual official high and low records may vary slightly from our data, if they occured in-between our weather recording intervals... More about our weather records

Advertising

Kairouan weather history for previous 24 hours

 ConditionsComfort  
Time TempWeatherWind HumidityBarometerVisibility
3:00 AM
Nov 28
57 °FCool.No wind88%29.74 "HgN/A
2:00 AM59 °FPassing clouds.2 mph82%29.77 "Hg5 mi
1:00 AM59 °FPassing clouds.1 mph82%29.77 "Hg5 mi
12:00 AM59 °FPassing clouds.1 mph88%29.80 "HgN/A
11:00 PM
Nov 27
59 °FPassing clouds.No wind88%29.80 "HgN/A
10:00 PM61 °FPassing clouds.No wind83%29.80 "HgN/A
9:00 PM63 °FPassing clouds.2 mph77%29.80 "HgN/A
7:00 PM68 °FPassing clouds.2 mph69%29.80 "HgN/A
6:00 PM68 °FPassing clouds.2 mph73%29.77 "HgN/A
5:00 PM72 °FPartly sunny.2 mph65%29.77 "HgN/A
4:00 PM73 °FPartly sunny.5 mph65%29.80 "HgN/A
3:00 PM75 °FPartly sunny.2 mph61%29.80 "HgN/A
2:00 PM73 °FPartly sunny.2 mph65%29.83 "HgN/A
1:00 PM73 °FPartly sunny.No wind69%29.86 "Hg5 mi
12:00 PM72 °FScattered clouds.2 mph73%29.89 "Hg5 mi
11:00 AM66 °FPartly sunny.3 mph83%29.92 "Hg5 mi
10:00 AM64 °FPartly sunny.3 mph83%29.92 "Hg4 mi
9:00 AM61 °FPartly sunny.2 mph88%29.92 "Hg4 mi
8:00 AM61 °FFog.2 mph94%29.92 "Hg2 mi
7:00 AM61 °FFog.No wind94%29.92 "Hg1 mi
6:00 AM59 °FFog.No wind100%29.92 "Hg1 mi
5:00 AM59 °FFog.No wind94%29.92 "Hg2 mi
4:00 AM59 °FFog.No wind100%29.95 "Hg2 mi
Weather by CustomWeather, © 2014

See weather overviewHow to use our weather pages